IRIDIUM 35 [P]

Last updated on Thu Dec 13 2018 00:08:42 GMT+0000 (Coordinated Universal Time)

1 24966U 97056B 18346.84007691 .03715343 -82991-6 11058-2 0 9990 2 24966 86.4077 91.1840 0379155 346.4903 12.6413 15.51761464110596

Satellite not in orbit